Flag for Poland Weather past 2 weeks in Słupsk, Poland

Now
35 °F

Passing clouds.


Feels Like: 23 °F
Forecast: 31 / 40 °F
Wind: 24 mph from Southwest

Location: Leba

Current Time: Mar 5, 2015 at 8:27:55 AM

Latest Report: Mar 5, 2015 at 7:00 AM


Visibility: 6 mi

Pressure: 30.26 "Hg

Humidity: 99%

Dew point: 35 °F

Location of SłupskLocation

Historic Weather in Słupsk — Graph

°F

Słupsk temperature yesterday

Maximum temperature yesterday: 39 °F (at 2:00 PM)
Minimum temperature yesterday: 32 °F (at 5:00 AM)
Average temperature yesterday: 35 °F

Past Weeks' High & Low Weather Summary

 TemperatureHumidityPressure
High49 °F (Feb 21, 2:00 PM)100% (Feb 26, 12:00 AM)30.57 "Hg (Feb 26, 12:00 AM)
Low27 °F (Feb 23, 3:00 AM)47% (Feb 21, 2:00 PM)29.32 "Hg (Mar 2, 12:00 PM)
Average38 °F85%29.85 "Hg
* Reported Feb 18 7:00 AM — Mar 5 7:00 AM, Słupsk, Weather by CustomWeather, © 2015

Note: Actual official high and low records may vary slightly from our data, if they occured in-between our weather recording intervals... More about our weather records

Advertising

Słupsk weather history for previous 24 hours

 ConditionsComfort  
Time TempWeatherWind HumidityBarometerVisibility
7:00 AM
Thu, Mar 5
35 °FPassing clouds.24 mph99%30.26 "Hg6 mi
6:00 AM36 °FLow clouds.5 mph100%30.25 "Hg11 mi
5:00 AM36 °FLow clouds.3 mph99%30.22 "Hg12 mi
3:00 AMN/APassing clouds.29 mphN/AN/A3 mi
2:00 AM35 °FLow clouds.5 mph99%30.18 "Hg7 mi
1:00 AM34 °FSprinkles. Low clouds.5 mph99%30.16 "Hg7 mi
12:00 AM33 °FLight mixture of precip. Low clouds.2 mph99%30.14 "Hg2 mi
11:00 PM
Wed, Mar 4
34 °FSprinkles. Low clouds.7 mph96%30.13 "Hg6 mi
9:00 PM35 °FOvercast.6 mph94%30.11 "Hg12 mi
8:00 PM36 °FOvercast.7 mph94%30.09 "Hg12 mi
7:00 PM36 °FOvercast.5 mph95%30.08 "Hg11 mi
6:00 PMN/APassing clouds.23 mphN/AN/A2 mi
5:00 PM37 °FScattered clouds.8 mph89%30.05 "Hg12 mi
4:00 PM39 °FScattered clouds.9 mph85%30.03 "Hg12 mi
3:00 PM38 °FPartly sunny.7 mph86%30.01 "Hg12 mi
2:00 PM39 °FPartly sunny.6 mph81%30.00 "Hg12 mi
1:00 PMN/APassing clouds.25 mphN/AN/A1 mi
12:00 PM37 °FOvercast.5 mph89%29.95 "Hg12 mi
11:00 AM38 °FOvercast.5 mph92%29.92 "Hg12 mi
10:00 AM36 °FLow clouds.2 mph98%29.89 "Hg12 mi
9:00 AM34 °FLight rain. Low clouds.3 mph99%29.86 "Hg5 mi
8:00 AMN/APassing clouds.47 mphN/AN/A1 mi
Weather by CustomWeather, © 2015

See weather overviewHow to use our weather pages